Year,Month,Day,Hour,Minute,Value (Times are PST for temperature in C)
2016,12,10,00,00,-0.10
2016,12,10,00,01,-0.10
2016,12,10,00,02,-0.20
2016,12,10,00,03,-0.20
2016,12,10,00,04,-0.20
2016,12,10,00,05,-0.20
2016,12,10,00,06,-0.20
2016,12,10,00,07,-0.20
2016,12,10,00,08,-0.30
2016,12,10,00,09,-0.30
2016,12,10,00,10,-0.30
2016,12,10,00,11,-0.30
2016,12,10,00,12,-0.30
2016,12,10,00,13,-0.40
2016,12,10,00,14,-0.40
2016,12,10,00,15,-0.40
2016,12,10,00,16,-0.40
2016,12,10,00,17,-0.40
2016,12,10,00,18,-0.50
2016,12,10,00,19,-0.50
2016,12,10,00,20,-0.50
2016,12,10,00,21,-0.50
2016,12,10,00,22,-0.60
2016,12,10,00,23,-0.60
2016,12,10,00,24,-0.60
2016,12,10,00,25,-0.60
2016,12,10,00,26,-0.60
2016,12,10,00,27,-0.70
2016,12,10,00,28,-0.70
2016,12,10,00,29,-0.70
2016,12,10,00,30,-0.70
2016,12,10,00,31,-0.70
2016,12,10,00,32,-0.70
2016,12,10,00,33,-0.70
2016,12,10,00,34,-0.80
2016,12,10,00,35,-0.80
2016,12,10,00,36,-0.80
2016,12,10,00,37,-0.80
2016,12,10,00,38,-0.80
2016,12,10,00,39,-0.80
2016,12,10,00,40,-0.80
2016,12,10,00,41,-0.80
2016,12,10,00,42,-0.80
2016,12,10,00,43,-0.80
2016,12,10,00,44,-0.90
2016,12,10,00,45,-0.90
2016,12,10,00,46,-0.90
2016,12,10,00,47,-0.90
2016,12,10,00,48,-0.90
2016,12,10,00,49,-0.90
2016,12,10,00,50,-0.90
2016,12,10,00,51,-0.90
2016,12,10,00,52,-0.90
2016,12,10,00,53,-0.90
2016,12,10,00,54,-0.90
2016,12,10,00,55,-0.90
2016,12,10,00,56,-0.90
2016,12,10,00,57,-0.90
2016,12,10,00,58,-1.00
2016,12,10,00,59,-0.90
2016,12,10,01,00,-1.00
2016,12,10,01,01,-1.00
2016,12,10,01,02,-1.00
2016,12,10,01,03,-1.00
2016,12,10,01,04,-1.00
2016,12,10,01,05,-0.90
2016,12,10,01,06,-0.90
2016,12,10,01,07,-0.90
2016,12,10,01,08,-0.90
2016,12,10,01,09,-0.90
2016,12,10,01,10,-0.90
2016,12,10,01,11,-0.90
2016,12,10,01,12,-0.90
2016,12,10,01,13,-0.90
2016,12,10,01,14,-0.90
2016,12,10,01,15,-0.90
2016,12,10,01,16,-0.90
2016,12,10,01,17,-0.90
2016,12,10,01,18,-0.90
2016,12,10,01,19,-0.90
2016,12,10,01,20,-0.90
2016,12,10,01,21,-0.90
2016,12,10,01,22,-0.90
2016,12,10,01,23,-0.90
2016,12,10,01,24,-0.90
2016,12,10,01,25,-0.80
2016,12,10,01,26,-0.80
2016,12,10,01,27,-0.80
2016,12,10,01,28,-0.90
2016,12,10,01,29,-0.80
2016,12,10,01,30,-0.80
2016,12,10,01,31,-0.80
2016,12,10,01,32,-0.80
2016,12,10,01,33,-0.80
2016,12,10,01,34,-0.80
2016,12,10,01,35,-0.80
2016,12,10,01,36,-0.80
2016,12,10,01,37,-0.80
2016,12,10,01,38,-0.80
2016,12,10,01,39,-0.80
2016,12,10,01,40,-0.70
2016,12,10,01,41,-0.70
2016,12,10,01,42,-0.70
2016,12,10,01,43,-0.70
2016,12,10,01,44,-0.70
2016,12,10,01,45,-0.60
2016,12,10,01,46,-0.60
2016,12,10,01,47,-0.60
2016,12,10,01,48,-0.60
2016,12,10,01,49,-0.60
2016,12,10,01,50,-0.60
2016,12,10,01,51,-0.50
2016,12,10,01,52,-0.50
2016,12,10,01,53,-0.50
2016,12,10,01,54,-0.50
2016,12,10,01,55,-0.50
2016,12,10,01,56,-0.50
2016,12,10,01,57,-0.40
2016,12,10,01,58,-0.40
2016,12,10,01,59,-0.50
2016,12,10,02,00,-0.40
2016,12,10,02,01,-0.40
2016,12,10,02,02,-0.40
2016,12,10,02,03,-0.40
2016,12,10,02,04,-0.40
2016,12,10,02,05,-0.40
2016,12,10,02,06,-0.40
2016,12,10,02,07,-0.40
2016,12,10,02,08,-0.40
2016,12,10,02,09,-0.50
2016,12,10,02,10,-0.50
2016,12,10,02,11,-0.50
2016,12,10,02,12,-0.50
2016,12,10,02,13,-0.50
2016,12,10,02,14,-0.50
2016,12,10,02,15,-0.60
2016,12,10,02,16,-0.60
2016,12,10,02,17,-0.60
2016,12,10,02,18,-0.60
2016,12,10,02,19,-0.60
2016,12,10,02,20,-0.60
2016,12,10,02,21,-0.60
2016,12,10,02,22,-0.60
2016,12,10,02,23,-0.60
2016,12,10,02,24,-0.60
2016,12,10,02,25,-0.60
2016,12,10,02,26,-0.60
2016,12,10,02,27,-0.60
2016,12,10,02,28,-0.60
2016,12,10,02,29,-0.60
2016,12,10,02,30,-0.60
2016,12,10,02,31,-0.60
2016,12,10,02,32,-0.60
2016,12,10,02,33,-0.60
2016,12,10,02,34,-0.60
2016,12,10,02,35,-0.60
2016,12,10,02,36,-0.60
2016,12,10,02,37,-0.60
2016,12,10,02,38,-0.50
2016,12,10,02,39,-0.50
2016,12,10,02,40,-0.50
2016,12,10,02,41,-0.50
2016,12,10,02,42,-0.50
2016,12,10,02,43,-0.40
2016,12,10,02,44,-0.40
2016,12,10,02,45,-0.40
2016,12,10,02,46,-0.40
2016,12,10,02,47,-0.40
2016,12,10,02,48,-0.40
2016,12,10,02,49,-0.40
2016,12,10,02,50,-0.40
2016,12,10,02,51,-0.40
2016,12,10,02,52,-0.40
2016,12,10,02,53,-0.40
2016,12,10,02,54,-0.40
2016,12,10,02,55,-0.40
2016,12,10,02,56,-0.40
2016,12,10,02,57,-0.40
2016,12,10,02,58,-0.40
2016,12,10,02,59,-0.40
2016,12,10,03,00,-0.40
2016,12,10,03,01,-0.40
2016,12,10,03,02,-0.40
2016,12,10,03,03,-0.40
2016,12,10,03,04,-0.40
2016,12,10,03,05,-0.40
2016,12,10,03,06,-0.40
2016,12,10,03,07,-0.40
2016,12,10,03,08,-0.40
2016,12,10,03,09,-0.40
2016,12,10,03,10,-0.40
2016,12,10,03,11,-0.40
2016,12,10,03,12,-0.40
2016,12,10,03,13,-0.40
2016,12,10,03,14,-0.40
2016,12,10,03,15,-0.40
2016,12,10,03,16,-0.40
2016,12,10,03,17,-0.40
2016,12,10,03,18,-0.40
2016,12,10,03,19,-0.40
2016,12,10,03,20,-0.40
2016,12,10,03,21,-0.30
2016,12,10,03,22,-0.30
2016,12,10,03,23,-0.30
2016,12,10,03,24,-0.30
2016,12,10,03,25,-0.30
2016,12,10,03,26,-0.30
2016,12,10,03,27,-0.30
2016,12,10,03,28,-0.30
2016,12,10,03,29,-0.30
2016,12,10,03,30,-0.30
2016,12,10,03,31,-0.30
2016,12,10,03,32,-0.30
2016,12,10,03,33,-0.30
2016,12,10,03,34,-0.30
2016,12,10,03,35,-0.30
2016,12,10,03,36,-0.30
2016,12,10,03,37,-0.30
2016,12,10,03,38,-0.30
2016,12,10,03,39,-0.30
2016,12,10,03,40,-0.30
2016,12,10,03,41,-0.30
2016,12,10,03,42,-0.30
2016,12,10,03,43,-0.30
2016,12,10,03,44,-0.30
2016,12,10,03,45,-0.30
2016,12,10,03,46,-0.20
2016,12,10,03,47,-0.20
2016,12,10,03,48,-0.20
2016,12,10,03,49,-0.30
2016,12,10,03,50,-0.20
2016,12,10,03,51,-0.20
2016,12,10,03,52,-0.20
2016,12,10,03,53,-0.20
2016,12,10,03,54,-0.20
2016,12,10,03,55,-0.20
2016,12,10,03,56,-0.20
2016,12,10,03,57,-0.20
2016,12,10,03,58,-0.30
2016,12,10,03,59,-0.30
2016,12,10,04,00,-0.20
2016,12,10,04,01,-0.20
2016,12,10,04,02,-0.20
2016,12,10,04,03,-0.20
2016,12,10,04,04,-0.20
2016,12,10,04,05,-0.20
2016,12,10,04,06,-0.20
2016,12,10,04,07,-0.20
2016,12,10,04,08,-0.20
2016,12,10,04,09,-0.20
2016,12,10,04,10,-0.20
2016,12,10,04,11,-0.20
2016,12,10,04,12,-0.20
2016,12,10,04,13,-0.20
2016,12,10,04,14,-0.20
2016,12,10,04,15,-0.20
2016,12,10,04,16,-0.20
2016,12,10,04,17,-0.20
2016,12,10,04,18,-0.10
2016,12,10,04,19,-0.10
2016,12,10,04,20,-0.10
2016,12,10,04,21,-0.10
2016,12,10,04,22,-0.10
2016,12,10,04,23,-0.10
2016,12,10,04,24,-0.10
2016,12,10,04,25,-0.10
2016,12,10,04,26,0.00
2016,12,10,04,27,0.00
2016,12,10,04,28,0.00
2016,12,10,04,29,0.00
2016,12,10,04,30,0.00
2016,12,10,04,31,0.00
2016,12,10,04,32,0.00
2016,12,10,04,33,0.00
2016,12,10,04,34,0.00
2016,12,10,04,35,0.00
2016,12,10,04,36,0.00
2016,12,10,04,37,0.00
2016,12,10,04,38,0.00
2016,12,10,04,39,0.00
2016,12,10,04,40,0.00
2016,12,10,04,41,0.00
2016,12,10,04,42,0.00
2016,12,10,04,43,-0.10
2016,12,10,04,44,-0.10
2016,12,10,04,45,-0.10
2016,12,10,04,46,-0.10
2016,12,10,04,47,-0.10
2016,12,10,04,48,-0.10
2016,12,10,04,49,0.00
2016,12,10,04,50,0.00
2016,12,10,04,51,0.00
2016,12,10,04,52,0.00
2016,12,10,04,53,0.00
2016,12,10,04,54,0.00
2016,12,10,04,55,0.00
2016,12,10,04,56,0.00
2016,12,10,04,57,0.00
2016,12,10,04,58,0.00
2016,12,10,04,59,0.00
2016,12,10,05,00,0.10
2016,12,10,05,01,0.10
2016,12,10,05,02,0.10
2016,12,10,05,03,0.10
2016,12,10,05,04,0.10
2016,12,10,05,05,0.10
2016,12,10,05,06,0.10
2016,12,10,05,07,0.10
2016,12,10,05,08,0.10
2016,12,10,05,09,0.20
2016,12,10,05,10,0.10
2016,12,10,05,11,0.20
2016,12,10,05,12,0.20
2016,12,10,05,13,0.10
2016,12,10,05,14,0.10
2016,12,10,05,15,0.10
2016,12,10,05,16,0.10
2016,12,10,05,17,0.10
2016,12,10,05,18,0.10
2016,12,10,05,19,0.10
2016,12,10,05,20,0.10
2016,12,10,05,21,0.10
2016,12,10,05,22,0.10
2016,12,10,05,23,0.20
2016,12,10,05,24,0.20
2016,12,10,05,25,0.20
2016,12,10,05,26,0.20
2016,12,10,05,27,0.20
2016,12,10,05,28,0.20
2016,12,10,05,29,0.20
2016,12,10,05,30,0.20
2016,12,10,05,31,0.20
2016,12,10,05,32,0.20
2016,12,10,05,33,0.20
2016,12,10,05,34,0.20
2016,12,10,05,35,0.20
2016,12,10,05,36,0.20
2016,12,10,05,37,0.20
2016,12,10,05,38,0.20
2016,12,10,05,39,0.20
2016,12,10,05,40,0.20
2016,12,10,05,41,0.20
2016,12,10,05,42,0.20
2016,12,10,05,43,0.20
2016,12,10,05,44,0.20
2016,12,10,05,45,0.20
2016,12,10,05,46,0.20
2016,12,10,05,47,0.20
2016,12,10,05,48,0.20
2016,12,10,05,49,0.20
2016,12,10,05,50,0.10
2016,12,10,05,51,0.10
2016,12,10,05,52,0.10
2016,12,10,05,53,0.10
2016,12,10,05,54,0.10
2016,12,10,05,55,0.10
2016,12,10,05,56,0.10
2016,12,10,05,57,0.10
2016,12,10,05,58,0.10
2016,12,10,05,59,0.10
2016,12,10,06,00,0.10
2016,12,10,06,01,0.10
2016,12,10,06,02,0.10
2016,12,10,06,03,0.10
2016,12,10,06,04,0.10
2016,12,10,06,05,0.10
2016,12,10,06,06,0.10
2016,12,10,06,07,0.10
2016,12,10,06,08,0.10
2016,12,10,06,09,0.10
2016,12,10,06,10,0.10
2016,12,10,06,11,0.10
2016,12,10,06,12,0.10
2016,12,10,06,13,0.20
2016,12,10,06,14,0.20
2016,12,10,06,15,0.20
2016,12,10,06,16,0.20
2016,12,10,06,17,0.20
2016,12,10,06,18,0.20
2016,12,10,06,19,0.20
2016,12,10,06,20,0.20
2016,12,10,06,21,0.20
2016,12,10,06,22,0.20
2016,12,10,06,23,0.20
2016,12,10,06,24,0.20
2016,12,10,06,25,0.20
2016,12,10,06,26,0.20
2016,12,10,06,27,0.20
2016,12,10,06,28,0.20
2016,12,10,06,29,0.20
2016,12,10,06,30,0.20
2016,12,10,06,31,0.20
2016,12,10,06,32,0.20
2016,12,10,06,33,0.20
2016,12,10,06,34,0.20
2016,12,10,06,35,0.20
2016,12,10,06,36,0.20
2016,12,10,06,37,0.20
2016,12,10,06,38,0.20
2016,12,10,06,39,0.20
2016,12,10,06,40,0.20
2016,12,10,06,41,0.20
2016,12,10,06,42,0.20
2016,12,10,06,43,0.20
2016,12,10,06,44,0.20
2016,12,10,06,45,0.20
2016,12,10,06,46,0.20
2016,12,10,06,47,0.20
2016,12,10,06,48,0.20
2016,12,10,06,49,0.20
2016,12,10,06,50,0.20
2016,12,10,06,51,0.20
2016,12,10,06,52,0.20
2016,12,10,06,53,0.20
2016,12,10,06,54,0.20
2016,12,10,06,55,0.20
2016,12,10,06,56,0.20
2016,12,10,06,57,0.20
2016,12,10,06,58,0.20
2016,12,10,06,59,0.20
2016,12,10,07,00,0.20
2016,12,10,07,01,0.20
2016,12,10,07,02,0.20
2016,12,10,07,03,0.20
2016,12,10,07,04,0.20
2016,12,10,07,05,0.20
2016,12,10,07,06,0.20
2016,12,10,07,07,0.20
2016,12,10,07,08,0.20
2016,12,10,07,09,0.20
2016,12,10,07,10,0.20
2016,12,10,07,11,0.20
2016,12,10,07,12,0.20
2016,12,10,07,13,0.20
2016,12,10,07,14,0.20
2016,12,10,07,15,0.20
2016,12,10,07,16,0.20
2016,12,10,07,17,0.20
2016,12,10,07,18,0.20
2016,12,10,07,19,0.20
2016,12,10,07,20,0.20
2016,12,10,07,21,0.20
2016,12,10,07,22,0.20
2016,12,10,07,23,0.20
2016,12,10,07,24,0.20
2016,12,10,07,25,0.20
2016,12,10,07,26,0.20
2016,12,10,07,27,0.20
2016,12,10,07,28,0.20
2016,12,10,07,29,0.20
2016,12,10,07,30,0.20
2016,12,10,07,31,0.20
2016,12,10,07,32,0.20
2016,12,10,07,33,0.20
2016,12,10,07,34,0.20
2016,12,10,07,35,0.20
2016,12,10,07,36,0.20
2016,12,10,07,37,0.20
2016,12,10,07,38,0.20
2016,12,10,07,39,0.20
2016,12,10,07,40,0.20
2016,12,10,07,41,0.20
2016,12,10,07,42,0.20
2016,12,10,07,43,0.20
2016,12,10,07,44,0.20
2016,12,10,07,45,0.20
2016,12,10,07,46,0.20
2016,12,10,07,47,0.20
2016,12,10,07,48,0.20
2016,12,10,07,49,0.20
2016,12,10,07,50,0.20
2016,12,10,07,51,0.20
2016,12,10,07,52,0.20
2016,12,10,07,53,0.20
2016,12,10,07,54,0.20
2016,12,10,07,55,0.20
2016,12,10,07,56,0.20
2016,12,10,07,57,0.20
2016,12,10,07,58,0.20
2016,12,10,07,59,0.20
2016,12,10,08,00,0.20
2016,12,10,08,01,0.30
2016,12,10,08,02,0.20
2016,12,10,08,03,0.30
2016,12,10,08,04,0.30
2016,12,10,08,05,0.30
2016,12,10,08,06,0.30
2016,12,10,08,07,0.30
2016,12,10,08,08,0.30
2016,12,10,08,09,0.30
2016,12,10,08,10,0.30
2016,12,10,08,11,0.30
2016,12,10,08,12,0.30
2016,12,10,08,13,0.30
2016,12,10,08,14,0.30
2016,12,10,08,15,0.30
2016,12,10,08,16,0.30
2016,12,10,08,17,0.30
2016,12,10,08,18,0.30
2016,12,10,08,19,0.30
2016,12,10,08,20,0.30
2016,12,10,08,21,0.30
2016,12,10,08,22,0.30
2016,12,10,08,23,0.40
2016,12,10,08,24,0.40
2016,12,10,08,25,0.40
2016,12,10,08,26,0.40
2016,12,10,08,27,0.50
2016,12,10,08,28,0.50
2016,12,10,08,29,0.50
2016,12,10,08,30,0.50
2016,12,10,08,31,0.60
2016,12,10,08,32,0.60
2016,12,10,08,33,0.60
2016,12,10,08,34,0.60
2016,12,10,08,35,0.60
2016,12,10,08,36,0.60
2016,12,10,08,37,0.60
2016,12,10,08,38,0.60
2016,12,10,08,39,0.60
2016,12,10,08,40,0.50
2016,12,10,08,41,0.50
2016,12,10,08,42,0.50
2016,12,10,08,43,0.50
2016,12,10,08,44,0.50
2016,12,10,08,45,0.60
2016,12,10,08,46,0.60
2016,12,10,08,47,0.60
2016,12,10,08,48,0.60
2016,12,10,08,49,0.60
2016,12,10,08,50,0.60
2016,12,10,08,51,0.60
2016,12,10,08,52,0.60
2016,12,10,08,53,0.50
2016,12,10,08,54,0.60
2016,12,10,08,55,0.60
2016,12,10,08,56,0.60
2016,12,10,08,57,0.60
2016,12,10,08,58,0.60
2016,12,10,08,59,0.60
2016,12,10,09,00,0.60
2016,12,10,09,01,0.60
2016,12,10,09,02,0.60
2016,12,10,09,03,0.60
2016,12,10,09,04,0.60
2016,12,10,09,05,0.60
2016,12,10,09,06,0.60
2016,12,10,09,07,0.60
2016,12,10,09,08,0.60
2016,12,10,09,09,0.60
2016,12,10,09,10,0.60
2016,12,10,09,11,0.60
2016,12,10,09,12,0.60
2016,12,10,09,13,0.60
2016,12,10,09,14,0.60
2016,12,10,09,15,0.60
2016,12,10,09,16,0.60
2016,12,10,09,17,0.60
2016,12,10,09,18,0.70
2016,12,10,09,19,0.70
2016,12,10,09,20,0.70
2016,12,10,09,21,0.70
2016,12,10,09,22,0.70
2016,12,10,09,23,0.70
2016,12,10,09,24,0.70
2016,12,10,09,25,0.70
2016,12,10,09,26,0.80
2016,12,10,09,27,0.80
2016,12,10,09,28,0.80
2016,12,10,09,29,0.80
2016,12,10,09,30,0.80
2016,12,10,09,31,0.80
2016,12,10,11,49,1.80
2016,12,10,11,50,1.80
2016,12,10,11,51,1.80
2016,12,10,13,24,1.80
2016,12,10,13,25,1.80
2016,12,10,13,26,1.80
2016,12,10,13,27,1.80
2016,12,10,13,28,1.80
2016,12,10,13,29,1.80
2016,12,10,13,30,1.80
2016,12,10,13,31,1.80
2016,12,10,13,32,1.80
2016,12,10,13,33,1.80
2016,12,10,13,34,1.80
2016,12,10,13,35,1.80
2016,12,10,13,36,1.80
2016,12,10,13,37,1.80
2016,12,10,13,38,1.80
2016,12,10,13,39,1.80
2016,12,10,13,40,1.80
2016,12,10,13,41,1.80
2016,12,10,13,42,1.80
2016,12,10,13,43,1.80
2016,12,10,13,44,1.80
2016,12,10,13,45,1.80
2016,12,10,13,46,1.80
2016,12,10,13,47,1.80
2016,12,10,13,48,1.80
2016,12,10,13,49,1.80
2016,12,10,13,50,1.80
2016,12,10,13,51,1.80
2016,12,10,13,52,1.90
2016,12,10,13,53,1.90
2016,12,10,13,54,1.90
2016,12,10,13,55,1.90
2016,12,10,13,56,1.90
2016,12,10,13,57,1.90
2016,12,10,13,58,2.00
2016,12,10,13,59,2.00
2016,12,10,14,00,2.00
2016,12,10,14,01,2.00
2016,12,10,14,02,2.00
2016,12,10,14,03,2.00
2016,12,10,14,04,2.10
2016,12,10,14,05,2.10
2016,12,10,14,06,2.10
2016,12,10,14,07,2.10
2016,12,10,14,08,2.10
2016,12,10,14,09,2.10
2016,12,10,14,10,2.10
2016,12,10,14,11,2.10
2016,12,10,14,12,2.00
2016,12,10,14,13,2.00
2016,12,10,14,14,2.00
2016,12,10,14,15,2.00
2016,12,10,14,16,2.00
2016,12,10,14,17,2.00
2016,12,10,14,18,2.00
2016,12,10,14,19,2.00
2016,12,10,14,20,2.00
2016,12,10,14,21,2.00
2016,12,10,14,22,2.00
2016,12,10,14,23,2.00
2016,12,10,14,24,2.00
2016,12,10,14,25,2.10
2016,12,10,14,26,2.10
2016,12,10,14,27,2.10
2016,12,10,14,28,2.00
2016,12,10,14,29,2.00
2016,12,10,14,30,2.10
2016,12,10,14,31,2.10
2016,12,10,14,32,2.10
2016,12,10,14,33,2.10
2016,12,10,14,34,2.10
2016,12,10,14,35,2.10
2016,12,10,14,36,2.10
2016,12,10,14,37,2.10
2016,12,10,14,38,2.20
2016,12,10,14,39,2.20
2016,12,10,14,40,2.20
2016,12,10,14,41,2.20
2016,12,10,14,42,2.20
2016,12,10,14,43,2.20
2016,12,10,14,44,2.20
2016,12,10,14,45,2.20
2016,12,10,14,46,2.20
2016,12,10,14,47,2.20
2016,12,10,14,48,2.20
2016,12,10,14,49,2.20
2016,12,10,14,50,2.20
2016,12,10,14,51,2.20
2016,12,10,14,52,2.20
2016,12,10,14,53,2.20
2016,12,10,14,54,2.20
2016,12,10,14,55,2.20
2016,12,10,14,56,2.20
2016,12,10,14,57,2.20
2016,12,10,14,58,2.30
2016,12,10,14,59,2.30
2016,12,10,15,00,2.30
2016,12,10,15,01,2.30
2016,12,10,15,02,2.30
2016,12,10,15,03,2.30
2016,12,10,15,04,2.30
2016,12,10,15,05,2.30
2016,12,10,15,06,2.30
2016,12,10,15,07,2.30
2016,12,10,15,08,2.30
2016,12,10,15,09,2.30
2016,12,10,15,10,2.30
2016,12,10,15,11,2.30
2016,12,10,15,12,2.30
2016,12,10,15,13,2.30
2016,12,10,15,14,2.30
2016,12,10,15,15,2.30
2016,12,10,15,16,2.30
2016,12,10,15,17,2.30
2016,12,10,15,18,2.30
2016,12,10,15,19,2.30
2016,12,10,15,20,2.30
2016,12,10,15,21,2.30
2016,12,10,15,22,2.30
2016,12,10,15,23,2.30
2016,12,10,15,24,2.30
2016,12,10,15,25,2.30
2016,12,10,15,26,2.30
2016,12,10,15,27,2.30
2016,12,10,15,28,2.30
2016,12,10,15,29,2.30
2016,12,10,15,30,2.30
2016,12,10,15,31,2.30
2016,12,10,15,32,2.40
2016,12,10,15,33,2.30
2016,12,10,15,34,2.40
2016,12,10,15,35,2.40
2016,12,10,15,36,2.40
2016,12,10,15,37,2.40
2016,12,10,15,38,2.40
2016,12,10,15,39,2.40
2016,12,10,15,40,2.40
2016,12,10,15,41,2.40
2016,12,10,15,42,2.40
2016,12,10,15,43,2.40
2016,12,10,15,44,2.40
2016,12,10,15,45,2.40
2016,12,10,15,46,2.40
2016,12,10,15,47,2.40
2016,12,10,15,48,2.40
2016,12,10,15,49,2.40
2016,12,10,15,50,2.40
2016,12,10,15,51,2.40
2016,12,10,15,52,2.40
2016,12,10,15,53,2.40
2016,12,10,15,54,2.40
2016,12,10,15,55,2.40
2016,12,10,15,56,2.40
2016,12,10,15,57,2.40
2016,12,10,15,58,2.40
2016,12,10,15,59,2.40
2016,12,10,16,00,2.40
2016,12,10,16,01,2.40
2016,12,10,16,02,2.40
2016,12,10,16,03,2.40
2016,12,10,16,04,2.40
2016,12,10,16,05,2.40
2016,12,10,16,06,2.40
2016,12,10,16,07,2.40
2016,12,10,16,08,2.40
2016,12,10,16,09,2.40
2016,12,10,16,10,2.40
2016,12,10,16,11,2.40
2016,12,10,16,12,2.40
2016,12,10,16,13,2.40
2016,12,10,16,14,2.40
2016,12,10,16,15,2.40
2016,12,10,16,16,2.40
2016,12,10,16,17,2.40
2016,12,10,16,18,2.30
2016,12,10,16,19,2.30
2016,12,10,16,20,2.30
2016,12,10,16,21,2.30
2016,12,10,16,22,2.30
2016,12,10,16,23,2.30
2016,12,10,16,24,2.30
2016,12,10,16,25,2.40
2016,12,10,16,26,2.30
2016,12,10,16,27,2.30
2016,12,10,16,28,2.40
2016,12,10,16,29,2.30
2016,12,10,16,30,2.40
2016,12,10,16,31,2.40
2016,12,10,16,32,2.40
2016,12,10,16,33,2.40
2016,12,10,16,34,2.40
2016,12,10,16,35,2.40
2016,12,10,16,36,2.40
2016,12,10,16,37,2.40
2016,12,10,16,38,2.40
2016,12,10,16,39,2.40
2016,12,10,16,40,2.40
2016,12,10,16,41,2.40
2016,12,10,16,42,2.30
2016,12,10,16,43,2.30
2016,12,10,16,44,2.30
2016,12,10,16,45,2.30
2016,12,10,16,46,2.30
2016,12,10,16,47,2.30
2016,12,10,16,48,2.30
2016,12,10,16,49,2.30
2016,12,10,16,50,2.30
2016,12,10,16,51,2.30
2016,12,10,16,52,2.30
2016,12,10,16,53,2.30
2016,12,10,16,54,2.30
2016,12,10,16,55,2.30
2016,12,10,16,56,2.30
2016,12,10,16,57,2.30
2016,12,10,16,58,2.30
2016,12,10,16,59,2.30
2016,12,10,17,00,2.30
2016,12,10,17,01,2.30
2016,12,10,17,02,2.30
2016,12,10,17,03,2.30
2016,12,10,17,04,2.30
2016,12,10,17,05,2.30
2016,12,10,17,06,2.30
2016,12,10,17,07,2.30
2016,12,10,17,08,2.30
2016,12,10,17,09,2.30
2016,12,10,17,10,2.30
2016,12,10,17,11,2.30
2016,12,10,17,12,2.30
2016,12,10,17,13,2.30
2016,12,10,17,14,2.30
2016,12,10,17,15,2.30
2016,12,10,17,16,2.30
2016,12,10,17,17,2.30
2016,12,10,17,18,2.20
2016,12,10,17,19,2.20
2016,12,10,17,20,2.20
2016,12,10,17,21,2.20
2016,12,10,17,22,2.20
2016,12,10,17,23,2.20
2016,12,10,17,24,2.20
2016,12,10,17,25,2.20
2016,12,10,17,26,2.10
2016,12,10,17,27,2.10
2016,12,10,17,28,2.10
2016,12,10,17,29,2.10
2016,12,10,17,30,2.00
2016,12,10,17,31,2.00
2016,12,10,17,32,1.90
2016,12,10,17,33,1.80
2016,12,10,17,34,1.80
2016,12,10,17,35,1.80
2016,12,10,17,36,1.70
2016,12,10,17,37,1.70
2016,12,10,17,38,1.60
2016,12,10,17,39,1.60
2016,12,10,17,40,1.60
2016,12,10,17,41,1.60
2016,12,10,17,42,1.50
2016,12,10,17,43,1.50
2016,12,10,17,44,1.50
2016,12,10,17,45,1.40
2016,12,10,17,46,1.40
2016,12,10,17,47,1.40
2016,12,10,17,48,1.40
2016,12,10,17,49,1.40
2016,12,10,17,50,1.40
2016,12,10,17,51,1.40
2016,12,10,17,52,1.40
2016,12,10,17,53,1.40
2016,12,10,17,54,1.40
2016,12,10,17,55,1.30
2016,12,10,17,56,1.30
2016,12,10,17,57,1.30
2016,12,10,17,58,1.30
2016,12,10,17,59,1.40
2016,12,10,18,00,1.40
2016,12,10,18,01,1.40
2016,12,10,18,02,1.50
2016,12,10,18,03,1.50
2016,12,10,18,04,1.50
2016,12,10,18,05,1.50
2016,12,10,18,06,1.50
2016,12,10,18,07,1.50
2016,12,10,18,08,1.50
2016,12,10,18,09,1.50
2016,12,10,18,10,1.50
2016,12,10,18,11,1.50
2016,12,10,18,12,1.40
2016,12,10,18,13,1.40
2016,12,10,18,14,1.40
2016,12,10,18,15,1.40
2016,12,10,18,16,1.40
2016,12,10,18,17,1.30
2016,12,10,18,18,1.30
2016,12,10,18,19,1.30
2016,12,10,18,20,1.30
2016,12,10,18,21,1.20
2016,12,10,18,22,1.20
2016,12,10,18,23,1.20
2016,12,10,18,24,1.20
2016,12,10,18,25,1.10
2016,12,10,18,26,1.10
2016,12,10,18,27,1.10
2016,12,10,18,28,1.10
2016,12,10,18,29,1.10
2016,12,10,18,30,1.10
2016,12,10,18,31,1.10
2016,12,10,18,32,1.10
2016,12,10,18,33,1.00
2016,12,10,18,34,1.00
2016,12,10,18,35,1.00
2016,12,10,18,36,1.00
2016,12,10,18,37,0.90
2016,12,10,18,38,0.90
2016,12,10,18,39,0.90
2016,12,10,18,40,0.90
2016,12,10,18,41,0.90
2016,12,10,18,42,0.90
2016,12,10,18,43,0.90
2016,12,10,18,44,0.90
2016,12,10,18,45,0.90
2016,12,10,18,46,0.90
2016,12,10,18,47,0.90
2016,12,10,18,48,0.90
2016,12,10,18,49,0.80
2016,12,10,18,50,0.80
2016,12,10,18,51,0.80
2016,12,10,18,52,0.80
2016,12,10,18,53,0.80
2016,12,10,18,54,0.80
2016,12,10,18,55,0.80
2016,12,10,18,56,0.80
2016,12,10,18,57,0.80
2016,12,10,18,58,0.80
2016,12,10,18,59,0.80
2016,12,10,19,00,0.80
2016,12,10,19,01,0.80
2016,12,10,19,02,0.80
2016,12,10,19,03,0.80
2016,12,10,19,04,0.80
2016,12,10,19,05,0.80
2016,12,10,19,06,0.80
2016,12,10,19,07,0.80
2016,12,10,19,08,0.80
2016,12,10,19,09,0.80
2016,12,10,19,10,0.80
2016,12,10,19,11,0.80
2016,12,10,19,12,0.80
2016,12,10,19,13,0.80
2016,12,10,19,14,0.80
2016,12,10,19,15,0.80
2016,12,10,19,16,0.80
2016,12,10,19,17,0.80
2016,12,10,19,18,0.80
2016,12,10,19,19,0.80
2016,12,10,19,20,0.90
2016,12,10,19,21,0.90
2016,12,10,19,22,1.00
2016,12,10,19,23,1.00
2016,12,10,19,24,1.10
2016,12,10,19,25,1.10
2016,12,10,19,26,1.10
2016,12,10,19,27,1.10
2016,12,10,19,28,1.10
2016,12,10,19,29,1.10
2016,12,10,19,30,1.10
2016,12,10,19,31,1.10
2016,12,10,19,32,1.00
2016,12,10,19,33,1.00
2016,12,10,19,34,1.00
2016,12,10,19,35,1.00
2016,12,10,19,36,1.00
2016,12,10,19,37,1.00
2016,12,10,19,38,1.00
2016,12,10,19,39,1.00
2016,12,10,19,40,1.00
2016,12,10,19,41,1.00
2016,12,10,19,42,0.90
2016,12,10,19,43,0.90
2016,12,10,19,44,0.90
2016,12,10,19,45,0.90
2016,12,10,19,46,0.90
2016,12,10,19,47,0.90
2016,12,10,19,48,0.90
2016,12,10,19,49,0.90
2016,12,10,19,50,0.90
2016,12,10,19,51,0.90
2016,12,10,19,52,0.90
2016,12,10,19,53,0.90
2016,12,10,19,54,0.90
2016,12,10,19,55,0.90
2016,12,10,19,56,0.90
2016,12,10,19,57,0.90
2016,12,10,19,58,0.90
2016,12,10,19,59,0.90
2016,12,10,20,00,0.90
2016,12,10,20,01,0.90
2016,12,10,20,02,0.90
2016,12,10,20,03,0.90
2016,12,10,20,04,1.00
2016,12,10,20,05,1.00
2016,12,10,20,06,1.00
2016,12,10,20,07,1.00
2016,12,10,20,08,1.00
2016,12,10,20,09,1.00
2016,12,10,20,10,1.00
2016,12,10,20,11,1.00
2016,12,10,20,12,1.00
2016,12,10,20,13,1.00
2016,12,10,20,14,1.10
2016,12,10,20,15,1.00
2016,12,10,20,16,1.10
2016,12,10,20,17,1.10
2016,12,10,20,18,1.10
2016,12,10,20,19,1.10
2016,12,10,20,20,1.10
2016,12,10,20,21,1.20
2016,12,10,20,22,1.20
2016,12,10,20,23,1.20
2016,12,10,20,24,1.20
2016,12,10,20,25,1.10
2016,12,10,20,26,1.10
2016,12,10,20,27,1.10
2016,12,10,20,28,1.10
2016,12,10,20,29,1.10
2016,12,10,20,30,1.10
2016,12,10,20,31,1.10
2016,12,10,20,32,1.10
2016,12,10,20,33,1.10
2016,12,10,20,34,1.10
2016,12,10,20,35,1.10
2016,12,10,20,36,1.10
2016,12,10,20,37,1.10
2016,12,10,20,38,1.10
2016,12,10,20,39,1.10
2016,12,10,20,40,1.10
2016,12,10,20,41,1.10
2016,12,10,20,42,1.10
2016,12,10,20,43,1.10
2016,12,10,20,44,1.10
2016,12,10,20,45,1.10
2016,12,10,20,46,1.10
2016,12,10,20,47,1.10
2016,12,10,20,48,1.10
2016,12,10,20,49,1.00
2016,12,10,20,50,1.00
2016,12,10,20,51,1.00
2016,12,10,20,52,1.00
2016,12,10,20,53,1.00
2016,12,10,20,54,1.00
2016,12,10,20,55,1.00
2016,12,10,20,56,1.00
2016,12,10,20,57,1.00
2016,12,10,20,58,1.00
2016,12,10,20,59,1.10
2016,12,10,21,00,1.10
2016,12,10,21,01,1.10
2016,12,10,21,02,1.10
2016,12,10,21,03,1.10
2016,12,10,21,04,1.20
2016,12,10,21,05,1.20
2016,12,10,21,06,1.20
2016,12,10,21,07,1.30
2016,12,10,21,08,1.30
2016,12,10,21,09,1.30
2016,12,10,21,10,1.30
2016,12,10,21,11,1.30
2016,12,10,21,12,1.30
2016,12,10,21,13,1.30
2016,12,10,21,14,1.30
2016,12,10,21,15,1.30
2016,12,10,21,16,1.30
2016,12,10,21,17,1.30
2016,12,10,21,18,1.30
2016,12,10,21,19,1.40
2016,12,10,21,20,1.40
2016,12,10,21,21,1.40
2016,12,10,21,22,1.40
2016,12,10,21,23,1.40
2016,12,10,21,24,1.40
2016,12,10,21,25,1.40
2016,12,10,21,26,1.40
2016,12,10,21,27,1.40
2016,12,10,21,28,1.40
2016,12,10,21,29,1.40
2016,12,10,21,30,1.40
2016,12,10,21,31,1.40
2016,12,10,21,32,1.40
2016,12,10,21,33,1.40
2016,12,10,21,34,1.40
2016,12,10,21,35,1.40
2016,12,10,21,36,1.40
2016,12,10,21,37,1.40
2016,12,10,21,38,1.40
2016,12,10,21,39,1.40
2016,12,10,21,40,1.40
2016,12,10,21,41,1.40
2016,12,10,21,42,1.40
2016,12,10,21,43,1.40